Location: Unspecified
(0.0000°N, 0.0000°E)
Time: 19:34:03
(UTC+00:00)

Vanguard 1 - Pass Details

Date: 16 April 2026
Orbit: 654 x 3817 km, 34.2° (Epoch: 18 May)

Event Time Altitude Azimuth Distance (km) Brightness Sun altitude
Rises 03:04:10 0° 313° (NW) 7,589 14.3 -43.1°
Reaches altitude 10° 03:14:32 10° 336° (NNW) 5,897 13.9 -40.6°
Maximum altitude 03:21:39 13° 1° (N) 4,973 13.7 -38.8°
Drops below altitude 10° 03:27:26 10° 26° (NNE) 4,653 13.9 -37.4°
Sets 03:33:20 0° 52° (NE) 4,958 14.5 -36.0°
